Location: Hermaringen
(48.5952°N, 10.2585°E)
Time: 19:52:31
(UTC+00:00)

Daily predictions for brighter satellites

Satellite Brightness Start Highest point End
(mag) Time Altitude Azimuth Time Altitude Azimuth Time Altitude Azimuth
SL-08 R/B 4.4 16:04:06 10° S 16:10:09 72° E 16:16:13 10° NNE
Cosmos 1975 Rocket 3.3 16:06:11 10° N 16:10:25 48° ENE 16:14:39 10° SSE
USA 215 3.3 16:04:03 10° ESE 16:10:34 78° NNE 16:17:08 10° NW
ARIANE 5 R/B 2.8 16:06:21 10° SE 16:11:02 43° ENE 16:15:44 10° N
ATLAS 5 CENTAUR R/B 2.3 16:08:51 10° NW 16:13:10 65° SW 16:18:33 10° SSE
Cosmos 1844 Rocket 4.5 16:12:45 10° W 16:17:18 25° NW 16:21:52 10° N
Cosmos 1802 Rocket 4.3 16:11:33 10° SSW 16:17:58 76° W 16:24:25 10° N
Cosmos 2344 4.3 16:11:11 10° NW 16:18:06 37° NNE 16:26:33 10° E
Iridium 4 Rocket 3.9 16:14:37 10° SSW 16:19:35 62° W 16:24:08 10° N
SAR-Lupe-4 3.8 16:16:38 10° SE 16:20:03 44° ENE 16:23:29 10° N
ISS -3.4 16:24:50 10° SW 16:28:06 53° SSE 16:30:57 13° ENE
CZ-2D R/B 3.0 16:26:18 10° SE 16:29:19 43° ENE 16:32:21 10° N
COSMOS 2406 4.1 16:25:29 10° NNW 16:30:21 28° NE 16:35:12 10° ESE
Cosmos 1833 Rocket 3.7 16:24:53 10° NW 16:30:22 53° WSW 16:35:49 10° S
Cosmos 407 Rocket 3.7 16:25:37 10° S 16:30:36 51° ESE 16:35:35 10° NNE
Cosmos 1484 Rocket 3.9 16:28:10 10° S 16:31:31 43° W 16:34:55 10° NNW
Cosmos 2016 Rocket 4.4 16:25:36 10° SSW 16:31:53 71° W 16:38:17 10° N
Cosmos 1812 3.2 16:30:11 10° SE 16:32:31 22° E 16:34:34 12° NE
IRS-P3 4.3 16:29:21 10° SE 16:34:28 50° ENE 16:39:37 10° N
TIMED 4.4 16:30:32 10° SSW 16:34:48 87° ESE 16:39:06 10° NNE
Tsikada Rocket 4.3 16:29:11 10° N 16:35:37 79° W 16:41:57 10° S
Cosmos 2084 Rocket 4.4 16:35:59 10° WSW 16:39:57 41° NW 16:43:58 10° NNE
SMAP 3.1 16:36:57 10° SSE 16:41:37 89° W 16:46:19 10° NNW
Cosmos 44 Rocket 3.6 16:39:00 10° SSW 16:43:34 48° ESE 16:47:38 14° NE
Cosmos 540 Rocket 3.4 16:39:48 10° NNW 16:44:58 77° ENE 16:50:05 10° SSE
SJ 16-02 2.4 16:42:20 10° SSE 16:45:47 24° E 16:47:54 17° ENE
SPOT 1/Viking Rocket 4.0 16:41:38 10° SE 16:46:24 39° ENE 16:51:12 10° N
Cosmos 1869 2.9 16:44:00 10° S 16:47:29 65° E 16:50:58 10° NNE
YAOGAN 1 3.5 16:44:46 10° ESE 16:48:17 26° ENE 16:51:49 10° N
SL-16 R/B 3.3 16:46:33 10° N 16:52:39 55° WNW 16:58:42 10° SW
Cosmos 1763 Rocket 3.6 16:48:10 10° NNW 16:53:24 79° WSW 16:58:32 10° SSE
Landsat 7 3.7 16:49:08 10° SSE 16:53:47 87° ENE 16:58:28 10° NNW
Spot 4 Rocket 4.4 16:52:37 10° SE 16:57:21 40° ENE 17:02:06 10° N
Nadezhda 4 Rocket 4.2 16:52:40 10° N 16:58:44 47° ENE 17:04:41 10° SSE
RESURS DK-1 2.7 16:55:10 10° NW 16:59:09 66° WSW 17:03:06 10° SSE
Timation 1 Rocket 4.5 16:53:11 10° NNW 16:59:10 81° WSW 17:05:08 10° SSE
Cosmos 1140 Rocket 4.3 16:54:42 10° SW 16:59:44 52° WNW 17:04:47 10° NNE
Aureole 3 Rocket 2.2 16:57:33 10° S 17:00:30 55° E 17:03:43 10° NNE
CZ-4C R/B 3.8 16:58:07 10° WNW 17:02:10 23° NNW 17:06:52 11° NE
Resurs 1-3 4.2 16:58:43 10° SE 17:02:33 33° ENE 17:06:24 10° N
CZ-4 R/B 4.4 17:01:47 10° SSE 17:05:39 55° ENE 17:09:33 10° N
SJ-6F 4.2 17:01:48 10° SSE 17:05:43 86° ENE 17:09:39 10° NNW
UNK 4.3 17:01:11 10° N 17:05:45 60° WNW 17:10:17 10° SSW
Cosmos 304 Rocket 4.4 17:04:27 10° SSE 17:08:40 33° ESE 17:10:27 25° ENE
Cosmos 1400 Rocket 3.2 17:06:26 10° SSE 17:09:56 36° E 17:11:07 29° NE
SJ-12 4.3 17:06:28 10° S 17:10:12 59° WSW 17:13:59 10° NNW
Cosmos 371 Rocket 3.9 17:06:02 10° SSE 17:10:19 33° ESE 17:12:04 25° ENE
Cosmos 1536 Rocket 3.6 17:07:58 10° N 17:12:20 56° ENE 17:16:39 10° SSE
SAR-Lupe-3 4.3 17:13:47 17° N 17:15:39 57° WNW 17:18:14 10° SSW
Helios 1A Rocket 3.5 17:16:47 27° SE 17:16:47 27° SE 17:18:59 10° SSE
Okean 2 Rocket 3.3 17:13:07 10° SSE 17:17:16 44° E 17:20:03 19° NNE
Cosmos 489 Rocket 4.4 17:13:00 10° NNW 17:19:16 66° ENE 17:25:26 10° SSE
NOAA 6 4.2 17:20:38 10° SE 17:25:31 46° ENE 17:30:26 10° N
SL-12 R/B(2) 4.4 17:18:52 10° SW 17:26:55 84° NW 17:35:47 14° NE
Geosat 4.4 17:25:22 31° E 17:27:02 41° NE 17:31:43 10° NNW
COSMO-SKYMED 1 2.6 17:26:50 38° ENE 17:27:53 47° E 17:31:51 10° S
Resurs 01 Rocket 3.3 17:30:11 19° NNE 17:30:11 19° NNE 17:31:46 10° N
Cosmos 1943 Rocket 2.5 17:24:40 10° SW 17:30:15 67° WNW 17:35:17 13° NNE
Timation 2 Rocket 4.4 17:24:49 10° SW 17:31:41 70° WNW 17:38:23 11° NNE
Cosmos 2251 Rocket 3.5 17:28:51 10° SSW 17:34:08 86° WNW 17:38:36 15° NNE
Cosmos 841 Rocket 3.4 17:28:57 10° NNW 17:34:13 66° ENE 17:38:54 13° SE
Cosmos 2058 3.3 17:30:20 10° NNW 17:34:16 61° W 17:38:11 10° S
SJ-7 3.9 17:32:05 10° SSE 17:35:44 77° ENE 17:39:26 10° N
BREEZE-M DEB (TANK) 2.5 17:35:21 10° WSW 17:38:06 89° SSE 17:39:49 40° E
Cosmos 2082 Rocket 2.5 17:33:49 10° NNW 17:39:23 66° WSW 17:44:56 10° SSE
ATLAS 2AS CENTAUR R/B 3.1 17:33:53 10° NW 17:40:19 43° NE 17:42:14 35° ENE
Cosmos 1346 Rocket 4.4 17:37:19 10° N 17:38:39 20° N 17:38:39 20° N
IRAS Rocket 4.2 17:37:12 10° SSE 17:42:46 89° WSW 17:48:19 10° NNW
Cosmos 2278 Rocket 2.7 17:38:15 10° SW 17:43:48 58° WNW 17:48:32 15° NNE
MOS 1 Rocket 4.1 17:40:56 10° S 17:45:06 48° W 17:49:30 10° NNW
Cosmos 1464 Rocket 4.0 17:43:37 10° SSW 17:49:55 81° W 17:56:10 10° N
Cosmos 1634 Rocket 4.3 17:44:39 10° SSE 17:57:50 - NNE 17:50:01 41° E
CZ-2D R/B 4.0 17:46:44 10° S 17:50:49 59° WSW 17:55:00 10° NNW
Meteor 2-1 Rocket 4.3 17:45:46 10° S 17:51:35 63° E 17:57:29 10° NNE
Cosmos 2369 Rocket 3.8 17:48:28 10° SSE 17:50:08 18° SSE 17:50:08 18° SSE
USA 215 4.4 17:47:52 10° SSE 17:53:56 40° SW 18:00:03 10° WNW
PSLV R/B 3.5 17:52:35 10° S 17:56:37 71° WSW 18:00:38 10° NNW
Cosmos 1862 4.2 17:53:11 10° NNW 17:56:39 43° W 18:00:05 10° SSW
Cosmos 2151 Rocket 4.3 17:56:10 10° SSW 18:00:34 55° WNW 18:05:01 10° N
Cosmos 1190 Rocket 4.4 17:56:46 10° SW 18:02:00 62° WNW 18:05:26 22° NNE
Cosmos 2034 Rocket 3.9 17:57:37 10° S 18:03:50 88° E 18:10:09 10° N
ISS -2.3 18:01:37 10° W 18:03:52 36° WNW 18:03:52 36° WNW
Cosmos 676 Rocket 3.9 17:59:44 10° SSW 18:05:02 89° WNW 18:06:42 46° NNE
Okean 1 Rocket 3.2 18:02:49 10° SSW 18:07:12 71° WNW 18:08:25 46° N
SKYMED 2 4.4 18:03:51 14° N 18:07:20 49° WNW 18:11:31 10° SW
Cosmos 1656 Rocket 3.5 18:02:13 10° SSW 18:07:43 68° ESE 18:07:59 67° E
USA 281 3.2 18:11:29 53° ENE 18:11:58 54° NE 18:18:20 10° NNW
Sich 1 Rocket 4.0 18:08:28 10° SSW 18:12:58 62° WNW 18:14:56 32° N
Cosmos 1954 Rocket 4.5 18:09:15 10° SW 18:14:26 59° WNW 18:16:53 30° N
COSMOS 2406 3.6 18:09:26 10° NNW 18:15:04 63° WSW 18:19:01 20° S
Cosmos 1932 4.4 18:08:52 10° SSW 18:15:12 77° SE 18:16:22 61° ENE
Cosmos 1092 Rocket 3.8 18:10:31 10° N 18:16:49 86° E 18:23:00 10° S
BlueWalker 3 4.3 18:14:54 10° SSW 18:15:40 15° SSW 18:15:40 15° SSW
Cosmos 2026 Rocket 4.0 18:15:42 10° NNW 18:21:48 79° W 18:27:56 10° S
SJ 16-02 2.5 18:19:37 10° SW 18:23:41 39° WNW 18:24:29 36° NW
YAOGAN 1 4.0 18:20:03 10° SSW 18:23:59 36° W 18:27:57 10° NNW
Cosmos 2344 3.9 18:25:25 10° NW 18:33:24 84° SW 18:38:34 34° SSE
Meteor 2-3 Rocket 4.4 18:32:10 10° NNW 18:37:41 52° W 18:43:06 10° S
CZ-4C R/B 4.1 18:48:06 10° NW 18:51:49 21° N 18:51:49 21° N
Resurs 01 Rocket 4.3 19:07:36 14° NW 19:07:36 14° NW 19:08:22 10° NNW
Cosmos 1943 Rocket 4.5 19:11:30 10° WNW 19:15:05 17° NW 19:16:48 15° NNW
ATLAS 2AS CENTAUR R/B 3.5 19:24:52 10° NW 19:29:41 45° WNW 19:29:41 45° WNW
